Theta_e
350 349 346 344 342 342 341 342 342 343 342 342 342 342 342 341 341 342 343 344 344 345 346 346 346 345 342 339 338 338 340 340 341 342 343 344 344 344 344 344 343 343 344 344 342 339 336 336 337 336 337 337 339 341 342 342 343 343 344 344 345 347 348
351 350 348 344 342 341 341 342 342 342 342 342 342 343 342 341 340 341 342 343 344 344 345 346 346 347 345 343 340 338 338 339 340 341 342 343 344 345 345 345 345 345 345 346 346 343 338 336 337 336 337 337 338 341 342 342 343 343 344 345 345 345 345
349 349 349 346 343 342 341 341 341 342 342 342 342 342 342 341 341 340 340 342 343 343 344 345 346 346 347 347 344 341 338 338 339 340 341 342 343 345 346 346 347 347 346 346 348 347 343 339 338 337 337 337 339 341 342 342 343 343 344 344 344 344 344
348 349 349 347 345 343 341 340 341 341 341 341 342 342 341 341 341 340 339 340 342 342 343 343 345 345 346 347 347 345 340 337 338 339 339 341 342 345 347 347 347 347 347 348 349 349 346 343 342 339 337 338 341 342 342 341 341 342 343 344 344 345 345
348 348 349 349 348 346 343 341 341 341 341 341 342 342 341 341 341 341 339 339 341 342 342 342 344 345 346 346 347 346 343 339 337 338 339 340 342 345 347 347 347 347 347 348 349 349 348 346 346 343 339 340 343 343 343 341 340 341 342 343 344 345 345
348 348 349 349 349 348 345 342 340 340 341 341 341 342 341 340 341 341 339 339 340 341 342 343 344 344 345 346 347 347 346 341 338 337 338 339 342 345 346 346 347 347 347 348 349 349 348 348 348 347 344 343 343 345 345 343 341 341 342 343 344 345 345
347 347 348 348 349 349 348 344 341 340 339 340 340 340 340 341 341 341 340 339 340 341 342 342 343 344 345 345 346 347 346 343 339 337 337 338 340 343 344 345 346 347 347 347 347 348 348 348 348 348 347 346 345 345 346 346 344 342 343 344 345 345 344
347 347 347 347 348 349 349 347 344 341 339 339 339 339 340 341 341 341 341 340 341 341 342 342 343 344 344 345 345 345 345 343 341 339 338 337 338 341 343 343 344 345 346 346 346 347 348 348 348 348 348 348 347 346 346 347 346 345 346 346 347 346 346
347 347 346 346 348 348 349 349 346 342 339 338 339 339 339 340 341 341 342 342 343 343 343 344 344 344 344 345 346 345 344 343 342 341 340 339 338 340 342 342 342 343 345 345 345 345 346 347 347 347 347 347 347 346 346 347 348 349 348 348 349 348 348
347 348 347 346 347 349 348 348 346 343 339 338 339 339 339 340 341 342 342 342 343 343 343 343 344 344 344 345 346 347 346 345 343 342 341 340 339 339 341 341 341 342 344 344 345 345 345 345 346 346 346 346 346 346 346 346 348 349 350 350 349 349 349
347 348 348 347 347 348 348 348 346 343 341 340 339 338 340 340 341 342 343 343 343 342 343 343 343 344 344 345 346 348 348 348 346 344 343 342 341 339 340 341 341 341 341 343 344 345 345 345 345 346 345 345 344 345 346 346 347 348 349 349 349 349 349
346 347 348 348 347 347 348 348 347 346 346 346 344 342 342 341 341 342 342 343 344 344 344 345 344 344 345 345 346 347 348 350 349 348 345 343 342 341 340 340 341 341 341 342 344 346 345 345 345 345 344 343 343 345 347 347 347 347 348 349 350 349 349
345 346 347 347 347 347 347 348 347 347 348 348 347 347 347 346 344 343 343 343 344 344 345 345 345 344 344 343 344 345 346 348 351 351 349 346 345 343 342 342 341 341 341 341 343 345 345 345 344 344 344 343 344 347 348 348 347 347 348 349 350 350 350
344 345 345 346 347 347 347 347 347 348 347 347 347 347 348 349 348 347 347 346 345 344 344 344 344 344 343 342 342 344 344 345 349 351 350 349 348 346 344 343 343 342 341 341 342 344 345 344 344 344 344 345 347 349 350 349 347 347 347 348 349 350 350
344 344 345 345 346 346 346 346 347 347 347 347 347 347 348 348 348 349 348 348 347 345 343 344 344 344 343 343 343 343 345 344 345 347 348 349 349 349 346 344 343 343 342 341 341 343 344 344 344 344 345 347 349 351 351 350 349 347 347 348 349 349 350
342 343 344 344 344 345 345 345 346 346 346 347 347 347 348 348 348 349 348 348 347 346 345 346 346 345 344 344 344 343 345 345 344 345 346 347 349 350 349 346 344 344 343 342 341 342 343 343 343 345 346 348 350 351 352 352 350 349 349 349 349 349 349
341 342 342 342 342 343 343 344 344 345 346 346 347 347 348 348 348 348 348 348 348 347 347 348 348 346 345 345 345 346 348 348 347 347 347 347 347 349 350 348 346 345 343 342 342 341 341 342 342 343 345 347 350 351 351 351 351 350 350 351 351 350 350
339 340 340 340 340 340 341 341 342 343 344 344 345 346 346 347 348 348 348 348 348 348 348 348 348 348 347 346 346 347 347 348 347 347 347 347 347 348 349 347 347 346 344 342 342 342 341 341 341 341 342 344 348 350 351 351 350 351 351 351 351 351 351
338 338 338 338 338 339 339 339 340 341 342 342 343 344 345 346 346 347 348 348 348 349 348 348 348 348 348 347 347 347 346 345 346 346 346 346 346 348 348 346 346 347 346 343 342 342 341 340 340 340 340 341 344 348 350 350 350 350 350 350 351 351 351
336 336 336 336 337 337 337 337 338 339 340 341 342 343 344 345 345 346 347 348 348 349 349 349 349 348 348 348 348 348 348 348 349 350 348 347 347 348 348 347 344 346 348 348 346 344 342 341 340 340 340 339 340 344 347 349 349 350 349 349 350 350 350
335 335 334 335 335 335 334 334 334 336 338 340 341 342 343 344 345 346 346 347 348 348 348 349 349 349 349 350 350 349 349 350 351 351 351 349 347 346 347 349 347 344 346 347 349 349 348 347 346 345 344 343 342 343 346 349 349 349 350 349 349 349 349
335 334 334 334 334 334 333 331 331 332 334 336 338 340 341 342 343 345 346 346 346 347 347 347 347 347 348 348 349 350 350 349 350 351 351 350 348 348 349 351 350 348 346 347 349 350 350 351 350 349 348 347 345 344 345 347 348 349 350 350 349 348 348
334 334 334 333 333 333 332 330 327 327 330 334 336 337 339 339 341 343 344 344 344 345 346 346 345 345 345 346 347 348 348 349 349 349 349 349 349 349 349 350 350 350 350 349 349 349 348 349 349 349 348 348 348 347 346 347 349 349 348 349 349 349 348
332 332 332 332 332 332 330 329 325 322 325 331 334 336 337 338 339 341 342 342 342 342 343 343 344 344 344 344 345 345 346 346 346 346 347 347 347 347 347 347 348 350 350 349 349 348 347 348 348 348 348 349 349 348 347 347 348 348 347 348 350 350 349
330 330 329 329 330 330 329 328 323 319 321 326 330 334 336 336 337 339 339 340 340 340 340 340 341 342 342 342 343 344 344 344 344 344 344 345 346 346 346 346 346 347 348 348 348 348 346 347 348 347 348 349 348 348 348 347 346 344 343 345 349 350 349
329 328 326 326 327 328 327 325 320 317 319 322 325 329 332 334 336 336 336 337 337 337 337 337 338 339 340 340 341 341 342 342 342 342 343 343 344 343 344 345 344 344 344 345 346 347 347 347 348 347 347 348 347 348 348 346 342 339 338 342 347 350 350
326 324 322 322 323 324 324 321 318 317 319 321 322 324 325 327 330 332 334 334 334 333 333 334 334 335 336 337 338 338 339 339 340 340 340 341 341 341 341 342 342 343 343 343 344 344 344 345 345 344 345 345 345 347 347 346 343 342 342 344 346 347 348
323 320 317 317 317 318 318 316 314 314 317 319 320 321 321 321 321 323 327 329 330 329 329 330 331 332 332 333 334 335 336 336 337 337 337 337 338 339 339 340 340 341 342 342 343 343 344 344 343 343 344 344 345 345 345 346 345 345 345 345 345 346 346
317 314 314 314 314 313 313 312 312 312 313 313 314 316 319 320 320 319 321 323 325 325 325 326 327 328 328 328 329 331 332 333 334 334 334 334 335 335 336 337 338 339 340 341 342 343 343 344 344 344 344 344 345 345 345 345 345 345 345 345 345 346 346
315 314 315 315 315 314 313 313 313 312 311 311 311 312 314 316 318 318 319 321 322 322 322 322 322 322 322 324 325 326 327 328 328 328 328 328 329 330 331 332 332 333 335 337 339 341 342 343 343 343 343 343 343 344 344 343 344 344 344 344 344 344 344
315 316 316 315 314 314 313 313 312 311 311 310 310 309 310 312 314 315 316 317 317 317 318 318 318 319 320 321 322 323 323 323 322 321 320 321 321 322 324 325 325 326 328 332 336 339 340 342 342 341 341 342 341 341 341 341 340 340 340 340 340 340 340
316 316 315 315 314 314 313 313 313 313 313 312 311 310 308 309 311 312 313 313 313 313 313 313 314 316 318 319 321 322 322 321 319 318 317 317 317 317 318 319 321 324 328 331 336 338 338 338 338 338 338 338 337 337 337 336 335 334 334 333 332 332 333
316 317 318 317 317 316 315 315 315 316 317 317 317 315 311 308 308 310 311 312 312 312 311 310 311 313 316 318 319 319 319 319 319 317 317 317 316 316 316 318 320 326 331 334 335 336 335 335 336 335 335 335 334 333 332 331 330 330 329 328 326 325 325
317 318 319 319 320 319 319 319 319 319 319 320 320 319 316 312 308 307 308 310 312 311 311 310 310 312 314 316 317 318 319 320 320 319 317 316 315 314 314 315 318 323 330 334 335 335 334 333 333 332 332 332 332 332 332 331 331 330 330 328 325 323 320
317 317 317 320 322 323 323 323 323 322 322 321 321 321 319 316 310 306 305 307 309 310 311 311 311 312 313 314 315 317 319 321 321 320 318 316 316 315 314 314 315 318 322 326 329 330 331 332 331 331 331 332 333 333 332 331 330 329 328 328 326 323 321
317 317 316 319 323 324 324 324 324 324 323 323 322 321 321 319 315 309 306 306 306 307 309 311 312 313 313 313 313 316 319 320 321 321 319 317 316 317 317 316 316 316 317 318 319 320 322 325 326 327 328 330 329 327 323 321 321 320 320 321 321 318 316
319 319 319 321 323 324 324 324 325 324 324 323 323 322 322 322 320 315 311 309 308 306 306 308 310 312 312 311 311 313 315 317 318 319 318 317 315 316 317 318 318 319 318 317 317 317 316 315 316 317 318 318 318 315 313 312 312 311 311 312 312 311 310
323 323 323 323 324 324 324 325 325 324 324 323 323 323 322 322 322 320 317 314 312 310 309 308 308 309 310 310 309 309 309 310 312 313 314 314 312 312 315 318 319 321 320 317 317 317 315 313 312 311 311 311 311 310 310 310 309 309 309 309 308 307 307
Wind_Speed
26 32 33 34 35 35 36 36 34 33 33 32 31 30 29 28 27 26 25 24 22 21 21 21 20 19 18 18 18 17 18 18 18 18 17 16 15 15 14 13 13 13 12 12 12 12 12 11 12 12 12 13 13 13 13 12 12 12 11 10 10 10 10
23 28 30 30 32 34 35 35 35 34 33 33 32 31 30 29 28 26 25 24 23 21 21 22 22 21 20 19 18 18 18 18 18 18 18 17 16 15 15 14 14 14 13 13 12 12 12 12 12 12 13 13 13 13 13 13 12 12 11 11 11 11 11
24 27 28 28 29 31 33 34 34 35 34 34 34 33 31 29 27 26 25 25 24 22 22 22 22 22 21 21 20 19 19 19 19 19 18 18 17 16 16 15 15 15 15 14 13 12 12 12 12 12 12 13 13 14 14 13 13 12 12 12 12 12 12
23 25 25 26 27 28 30 32 34 35 35 35 34 33 32 29 27 27 26 25 25 24 23 22 22 23 23 22 22 21 20 20 20 19 19 18 17 17 17 16 15 15 15 15 13 13 13 12 12 12 13 13 13 14 15 14 14 13 12 12 13 13 13
15 19 19 23 25 26 26 29 32 34 35 36 35 34 33 31 29 29 28 27 26 25 23 22 22 23 23 24 24 23 21 21 21 20 20 19 19 19 18 18 17 16 16 15 14 14 14 13 12 12 13 13 14 14 15 15 15 14 14 13 14 14 13
8 14 16 19 22 24 25 27 29 32 35 36 35 35 34 33 32 31 30 28 28 27 25 24 24 23 23 23 25 24 23 22 21 21 21 21 20 20 20 19 18 17 17 16 15 15 15 14 13 12 12 13 14 14 15 15 14 14 14 14 15 15 15
9 13 17 19 22 24 26 26 27 29 32 33 34 34 34 34 33 32 32 30 29 28 27 26 25 24 23 23 24 25 24 23 22 22 22 22 22 22 21 20 19 19 18 17 16 16 16 16 15 14 13 13 14 15 15 15 15 15 15 16 16 16 16
4 10 15 19 22 25 26 27 26 26 29 31 32 33 34 34 34 33 33 32 31 31 30 28 26 25 24 23 23 24 24 23 22 22 22 23 23 23 23 21 20 20 19 18 18 17 17 17 16 16 15 14 15 15 16 16 15 16 16 17 17 17 17
2 4 10 15 18 21 24 28 27 24 26 29 31 32 33 33 34 33 33 33 33 33 32 30 29 27 26 25 24 23 23 23 23 22 22 23 24 24 24 23 21 21 21 20 19 18 18 17 17 17 17 16 16 16 16 17 16 16 17 17 17 17 17
3 1 5 11 14 15 18 24 25 23 22 25 28 29 31 32 32 33 33 33 34 33 33 32 31 29 28 27 25 24 24 24 23 23 23 23 24 25 24 23 22 22 22 21 20 19 19 18 18 18 18 18 18 17 17 17 17 17 16 16 16 17 17
3 3 3 8 12 12 13 15 17 18 17 19 23 26 28 28 29 30 32 33 33 33 33 32 31 30 28 28 27 27 27 26 25 24 24 24 25 25 24 24 23 22 22 21 21 20 19 19 20 20 20 19 18 17 17 17 17 17 16 16 16 17 17
4 5 5 5 8 11 12 11 12 14 12 11 13 17 19 22 25 27 29 31 32 32 32 32 32 30 29 28 28 29 29 29 27 26 25 24 24 24 24 24 23 23 22 22 21 20 19 20 20 20 20 19 18 17 16 16 16 17 16 16 17 17 17
7 6 7 6 6 7 8 8 9 11 12 11 11 11 12 15 19 21 23 26 28 30 32 32 32 30 28 28 29 31 30 29 28 27 26 25 24 24 25 25 24 23 23 23 22 20 20 20 21 20 19 19 18 17 17 17 17 17 17 17 17 17 17
11 10 9 8 8 7 5 4 5 7 11 15 18 17 15 15 16 17 19 22 24 27 31 32 32 31 30 29 30 32 31 29 29 29 28 27 26 25 25 25 25 24 24 23 23 21 21 21 20 19 19 19 18 17 17 18 18 18 18 18 17 17 17
15 14 12 12 12 11 9 7 3 2 6 11 15 18 18 18 19 19 20 21 22 26 29 31 31 31 31 31 32 33 32 29 28 28 29 29 27 26 26 26 25 25 24 24 23 22 22 21 21 20 20 19 19 18 18 18 18 19 18 18 17 17 18
16 17 16 15 15 14 13 11 9 5 2 3 7 11 14 15 17 19 20 21 23 25 26 27 29 30 31 32 32 34 34 31 29 29 29 29 28 27 26 26 26 26 25 25 24 23 23 22 21 21 21 21 20 19 18 18 19 18 17 16 16 17 18
16 18 18 18 18 17 15 13 12 10 7 6 3 5 8 10 12 14 15 18 21 24 23 22 24 27 30 31 31 32 32 31 30 32 32 31 30 29 27 26 26 26 26 26 25 25 24 23 23 23 22 22 22 21 20 20 19 17 16 15 15 16 17
16 18 20 20 20 20 19 17 15 13 11 10 8 6 5 7 8 9 11 12 15 19 20 21 22 24 27 29 31 32 32 32 32 35 36 34 31 29 28 27 26 26 27 27 27 26 25 25 25 25 24 24 23 23 22 21 20 18 17 16 15 15 16
17 20 20 21 22 22 22 21 19 16 14 13 12 11 10 8 6 6 8 9 10 12 14 18 20 22 25 27 30 33 35 35 35 36 37 37 34 30 29 28 27 27 27 27 27 27 26 26 26 26 26 25 25 24 24 23 21 19 18 17 17 17 18
19 20 21 22 23 23 23 23 22 20 17 15 13 13 12 11 8 6 6 7 9 10 12 14 16 18 21 24 28 32 33 34 36 36 36 37 34 30 28 28 28 28 27 26 26 26 26 27 26 27 27 27 26 26 25 24 23 21 19 19 19 19 20
19 19 21 22 22 23 23 24 23 22 21 19 17 15 14 13 9 7 7 7 8 10 11 13 16 18 20 23 26 29 30 32 34 34 34 35 34 31 29 29 28 27 26 26 26 27 26 25 25 26 26 27 28 27 26 26 25 23 22 21 21 21 22
16 17 19 20 20 22 23 23 24 23 23 22 21 20 20 17 12 8 6 6 7 8 9 10 12 15 18 22 26 27 28 29 30 30 31 32 31 30 28 26 23 22 25 28 28 27 25 23 24 26 26 27 29 29 29 29 28 26 24 24 24 24 23
15 15 16 17 18 19 20 21 21 22 21 22 23 23 22 20 15 12 10 9 8 7 7 8 8 8 10 15 21 24 24 25 26 27 27 26 24 23 22 21 19 20 23 25 25 24 22 20 21 23 23 24 27 29 30 30 29 28 26 24 23 24 24
13 14 14 15 16 17 18 18 19 20 20 22 23 23 22 20 17 15 16 16 16 14 11 9 8 8 7 4 3 6 9 10 11 14 16 17 15 14 13 13 15 17 17 17 16 17 17 16 16 17 17 18 21 23 26 28 29 28 26 23 20 20 21
12 13 13 14 15 15 16 16 16 18 20 22 22 22 21 20 20 20 21 22 22 22 22 20 15 12 11 10 9 9 10 8 6 6 8 8 8 9 9 9 10 11 11 11 12 13 14 14 14 15 16 17 17 17 19 21 22 22 23 22 21 20 21
10 11 11 12 13 13 13 13 15 17 21 22 21 20 19 19 19 22 24 24 25 26 26 24 20 17 16 15 13 12 11 10 9 8 8 8 6 4 5 6 8 9 10 10 11 12 14 14 13 13 14 15 17 17 17 18 19 19 20 22 23 24 24
9 10 10 11 12 12 12 13 15 17 19 20 20 20 19 18 18 21 23 23 25 27 25 22 21 20 20 19 18 16 15 14 13 12 12 10 7 3 0 2 3 5 8 9 10 11 14 15 15 16 17 18 19 20 19 20 20 21 22 23 24 26 27
8 9 10 10 11 12 12 13 14 16 17 17 17 18 18 18 18 20 22 22 24 23 21 20 19 19 20 20 20 19 18 17 17 16 16 15 13 9 5 4 3 2 2 5 6 8 10 13 15 17 19 20 21 21 21 21 21 21 23 24 25 26 27
8 9 10 11 13 14 15 15 16 17 17 17 17 17 17 17 18 19 20 22 21 20 18 18 18 17 18 19 19 19 18 18 17 17 16 16 15 13 11 9 7 5 3 3 3 4 6 8 10 12 14 16 16 17 17 16 17 17 18 20 22 23 24
9 11 11 12 14 15 15 16 17 17 17 17 17 17 17 17 16 17 19 20 19 17 17 17 16 16 17 18 19 19 19 18 17 16 16 15 14 12 11 11 10 9 7 5 2 2 4 6 8 9 9 10 10 10 10 10 11 12 12 14 15 17 18
11 12 13 13 14 15 15 16 16 16 17 18 18 17 17 16 15 15 17 17 16 15 15 15 15 15 16 17 18 18 19 18 18 17 16 15 14 13 12 11 10 10 10 9 6 3 1 4 6 7 7 7 7 6 6 6 5 4 4 5 5 7 8
13 14 14 14 15 15 15 15 15 16 16 17 18 18 18 17 16 15 15 15 14 14 14 13 13 14 15 15 16 16 16 16 17 17 17 15 14 14 13 12 11 11 10 10 10 8 6 4 3 3 2 1 1 1 1 3 4 5 4 4 5 5 6
13 14 14 14 13 13 13 12 13 14 15 16 17 18 18 18 17 15 14 13 13 13 12 12 12 13 14 14 15 14 15 15 16 17 17 17 16 15 14 12 12 10 9 10 10 11 10 9 7 8 7 7 8 9 8 8 8 8 7 7 8 8 9
12 12 12 12 11 10 10 10 11 11 12 13 15 16 16 17 16 15 14 12 12 12 12 12 12 12 13 13 13 13 14 15 15 16 16 17 17 16 15 13 12 11 10 11 11 11 11 10 9 9 10 10 10 10 9 8 7 6 5 6 7 8 9
9 9 9 10 10 10 10 10 10 10 10 11 11 12 13 14 14 14 13 12 12 12 11 12 12 12 12 12 12 12 13 13 13 14 15 16 16 16 15 14 13 12 12 12 12 11 11 10 8 8 8 7 6 6 5 5 5 6 7 8 9 9 9
6 6 6 7 8 8 9 10 10 10 10 9 9 9 10 11 12 12 13 12 12 12 12 12 11 11 11 11 11 10 10 10 11 11 12 14 15 15 15 14 14 12 12 12 12 12 11 9 7 6 4 3 4 5 6 7 8 9 10 11 11 11 11
6 5 5 6 7 7 8 8 9 10 10 9 8 8 8 8 9 10 10 11 11 11 11 11 10 10 10 10 10 9 9 8 8 9 10 11 12 12 12 13 13 12 12 12 12 12 12 11 9 8 7 6 6 6 7 7 7 7 8 8 9 9 9
7 6 6 6 6 4 5 6 7 8 8 8 8 8 7 7 7 7 7 8 9 10 10 10 10 9 8 8 8 8 8 8 7 8 8 9 9 9 9 10 10 10 10 11 11 11 12 12 11 11 11 10 8 7 7 7 7 6 6 6 6 6 6
Wind_Direction
209 213 216 218 220 222 225 227 228 229 230 229 227 226 226 225 223 222 218 216 216 213 209 207 206 207 210 214 217 220 223 225 225 222 218 215 216 218 220 221 224 227 232 238 242 242 240 239 239 238 235 235 234 233 234 236 236 235 239 243 242 242 247
204 209 212 214 216 219 222 224 226 229 231 229 227 226 227 226 225 224 221 217 217 216 214 212 211 212 214 215 217 219 221 224 227 228 227 224 221 222 224 227 232 235 238 243 248 247 242 239 238 237 235 237 237 234 234 236 235 235 240 245 247 248 251
207 210 210 212 216 219 221 222 223 226 230 229 227 227 228 228 228 227 224 221 219 219 218 217 217 217 218 218 219 219 220 222 225 228 230 230 227 226 227 230 235 239 240 241 246 249 245 242 242 240 237 238 239 237 236 238 237 237 240 243 247 250 251
206 212 214 217 220 221 221 222 222 224 228 229 229 229 230 231 232 231 229 226 223 222 221 220 220 220 221 222 222 221 221 221 223 226 228 230 231 231 231 232 235 237 238 238 242 245 243 242 244 242 237 235 237 238 238 239 239 237 238 241 244 247 250
201 209 215 222 224 224 224 224 224 226 227 229 231 232 233 233 233 233 232 229 227 227 226 224 223 224 225 225 225 226 224 223 224 225 227 228 230 233 234 234 233 234 235 237 240 240 237 237 239 238 235 232 233 237 239 240 240 239 238 241 243 245 249
182 204 215 225 227 226 225 225 227 228 229 231 232 233 234 234 233 234 234 231 230 230 229 229 227 228 230 229 228 229 227 225 225 226 228 229 229 231 234 235 233 232 233 235 237 238 236 233 234 235 234 232 233 237 241 242 242 241 241 243 246 248 250
168 193 209 221 228 229 227 226 227 227 228 231 232 231 232 233 233 234 235 234 233 232 231 231 230 231 233 233 232 232 229 227 227 227 228 230 230 231 233 234 233 233 234 234 235 236 235 233 233 234 235 236 236 239 242 244 242 241 242 245 248 251 252
179 193 207 216 224 229 229 228 229 227 226 228 229 229 230 232 232 234 235 235 235 235 235 234 234 235 235 236 237 235 231 229 229 228 229 230 231 232 233 233 232 232 234 235 234 233 233 234 233 234 236 238 240 242 244 244 242 240 242 245 248 251 253
324 228 224 223 225 228 228 227 226 226 225 225 226 228 230 231 233 233 234 235 235 235 236 236 236 237 238 239 240 238 234 231 230 230 230 231 232 233 235 235 232 232 233 235 236 233 232 233 234 235 237 240 243 244 245 244 242 240 243 246 248 250 252
357 352 221 217 218 221 220 221 222 222 224 225 225 229 231 231 232 234 234 236 237 238 238 238 238 239 240 241 243 242 239 236 233 232 230 231 233 234 236 237 235 233 232 233 236 236 233 233 234 235 237 240 243 245 246 246 244 244 246 248 251 252 253
8 50 152 193 198 198 198 203 209 213 220 227 227 228 231 233 235 236 237 239 240 241 241 242 241 240 240 241 243 244 242 241 239 237 233 232 234 236 237 238 238 237 233 232 234 235 235 234 234 236 237 240 243 245 247 248 247 246 247 250 253 253 254
23 63 99 146 175 190 198 196 193 197 203 218 228 229 234 240 241 241 242 243 245 245 244 244 243 243 242 243 246 248 246 245 244 242 240 237 236 237 238 238 239 238 236 233 232 233 236 236 236 238 240 242 245 247 248 248 246 245 246 250 253 253 253
47 68 86 98 124 162 190 201 205 211 215 226 242 244 241 244 246 248 250 251 252 251 249 247 245 244 244 246 248 250 250 249 248 246 245 243 241 240 240 239 239 240 238 236 233 233 235 236 237 240 243 244 244 245 245 245 244 244 244 247 249 250 251
58 63 70 75 80 92 111 148 186 212 222 229 239 244 242 239 241 247 252 255 257 255 253 252 250 247 246 246 246 247 248 249 249 248 248 247 246 243 242 242 241 240 240 238 236 236 236 237 238 240 242 242 241 241 243 244 242 242 243 244 245 248 251
60 61 61 63 64 65 64 66 80 185 222 229 235 241 244 243 243 245 246 249 252 254 254 254 252 250 249 247 246 247 249 248 248 250 250 248 247 246 245 244 242 242 241 240 238 238 237 237 237 239 240 239 238 238 240 242 241 240 240 242 245 248 251
59 62 61 61 61 60 60 57 55 49 356 270 248 246 248 250 251 250 247 245 247 250 252 252 253 254 252 249 249 251 251 249 248 250 251 250 248 246 244 243 243 242 241 240 238 238 238 238 238 240 240 238 236 236 239 242 242 239 239 242 246 249 252
58 61 60 57 55 54 54 52 50 46 32 14 335 273 263 261 259 257 254 248 245 248 250 251 253 254 253 252 253 254 252 250 250 252 253 252 250 246 243 242 243 243 242 239 238 238 237 237 238 240 240 239 237 236 238 241 240 239 241 244 248 251 253
52 54 53 52 51 51 50 47 42 37 28 19 10 352 320 289 278 280 279 269 257 254 253 252 252 253 255 255 255 255 255 253 253 255 256 256 254 248 242 238 239 243 243 240 239 239 238 237 237 238 239 239 239 237 238 238 237 236 240 244 248 251 253
50 53 52 52 52 52 52 49 45 39 32 24 15 9 2 346 321 305 296 286 276 267 260 256 254 253 255 256 255 255 255 253 253 253 254 257 257 250 243 236 235 240 245 244 242 242 242 242 241 240 239 239 239 238 237 237 236 234 238 244 247 249 252
52 54 53 53 54 53 51 50 47 44 41 35 26 17 12 7 354 330 307 290 278 273 269 266 265 263 260 258 257 256 256 256 255 251 249 252 254 253 249 241 233 235 242 245 245 244 244 245 245 245 243 241 239 238 237 240 240 239 242 248 250 252 254
51 50 49 49 50 50 48 47 46 44 43 42 40 36 29 19 2 334 314 296 281 279 278 275 275 275 271 264 260 259 258 256 254 250 245 245 248 253 254 247 239 236 239 243 245 245 245 246 247 248 248 245 242 239 237 238 239 240 246 252 253 253 254
50 48 46 44 43 44 44 43 42 42 42 41 43 43 36 26 13 357 338 318 304 299 298 297 296 291 281 270 262 258 256 254 251 247 242 240 242 246 248 245 239 235 235 238 241 244 247 250 252 252 252 250 247 243 239 236 234 235 242 252 254 251 250
51 49 47 44 42 41 41 40 40 42 44 44 43 42 37 31 24 23 25 20 8 349 326 323 336 341 317 284 264 252 247 245 242 237 231 228 230 235 240 241 236 231 232 235 239 244 250 254 253 251 253 253 251 248 245 242 238 238 246 258 259 251 249
52 53 50 46 44 40 37 37 38 42 48 49 46 43 41 39 39 45 53 56 53 50 47 44 51 59 53 16 260 213 202 206 208 204 202 203 209 218 231 240 239 240 244 244 241 242 246 251 252 251 253 255 253 250 248 247 245 246 256 270 270 259 255
58 56 51 47 43 38 34 34 38 45 51 53 50 47 44 45 49 58 64 66 67 65 62 58 58 63 67 66 72 88 98 107 116 132 152 166 185 206 221 232 236 242 252 252 244 238 238 246 254 256 257 259 260 258 254 254 253 253 260 271 276 272 267
61 54 51 47 42 37 33 34 39 46 49 51 50 49 46 46 52 61 65 66 65 64 60 56 54 56 59 60 63 72 81 88 94 103 114 123 136 184 233 254 257 258 261 260 254 246 242 247 255 259 259 261 264 265 263 263 266 266 267 271 274 273 270
61 52 49 47 44 41 37 37 41 45 47 48 49 50 49 49 56 64 66 65 62 59 56 54 54 55 59 61 62 66 71 77 81 83 84 85 87 90 305 303 293 278 269 265 261 252 248 251 256 259 259 259 261 263 263 264 268 271 272 272 271 269 268
61 52 51 51 53 53 49 46 48 48 47 47 47 48 48 49 56 64 65 63 61 58 54 51 48 49 53 57 59 60 62 64 67 69 71 71 70 67 60 51 41 8 297 276 269 261 255 254 252 251 253 255 258 262 263 264 267 270 271 272 272 272 271
71 69 68 66 63 60 56 54 53 50 48 47 45 47 48 48 52 58 61 61 59 55 51 47 42 41 44 48 50 50 50 50 52 56 62 67 69 68 66 64 60 49 21 333 294 272 267 264 255 249 250 252 255 261 268 272 274 274 275 276 276 275 274
88 83 78 70 65 61 57 54 53 51 50 49 47 47 48 47 49 53 56 56 54 52 49 45 40 40 42 43 43 43 42 41 39 39 41 44 48 52 55 55 53 48 39 26 356 246 254 267 265 259 258 257 256 261 269 274 274 273 273 274 274 275 275
96 88 79 73 68 64 59 55 54 54 52 50 49 48 48 47 47 48 49 48 46 46 45 42 40 42 43 43 43 42 41 39 38 36 33 32 32 35 38 40 41 40 37 32 30 36 282 269 269 269 269 267 263 261 259 255 252 256 266 276 284 287 285
97 90 83 78 73 67 63 61 59 59 56 53 51 49 47 46 44 44 45 43 43 44 42 39 41 44 45 45 45 43 40 38 38 37 36 35 35 35 36 38 39 38 32 28 32 42 47 31 5 9 12 343 345 46 116 135 114 98 82 58 31 360 337
99 92 85 81 78 74 70 66 63 61 57 53 50 48 46 45 44 43 42 40 41 41 40 39 43 47 47 46 44 41 40 39 38 38 40 42 43 43 42 41 41 39 37 38 43 47 50 49 48 55 65 73 75 76 80 82 78 70 61 45 25 7 355
100 92 85 83 84 81 76 69 63 58 53 49 47 45 44 44 43 43 43 41 40 39 38 40 44 46 46 45 44 44 42 41 41 41 42 43 44 44 45 45 43 38 38 43 46 47 48 50 54 65 75 80 80 79 78 74 64 48 30 11 354 346 345
98 92 87 86 88 85 78 70 63 58 53 49 46 44 44 43 42 41 42 43 45 45 42 41 42 43 43 43 45 46 45 43 42 41 41 42 43 44 46 48 46 40 37 39 42 44 47 49 52 66 79 80 70 60 53 44 22 355 340 331 324 324 329
105 101 100 100 100 91 77 67 61 56 52 49 45 43 44 44 43 43 42 42 45 49 51 49 45 42 41 42 44 45 44 41 39 37 35 35 38 42 45 47 49 46 42 40 40 40 42 40 35 39 45 23 6 7 2 351 341 333 326 322 320 321 325
128 121 118 118 115 96 72 61 55 50 48 48 45 41 40 40 40 42 43 43 43 45 47 49 47 44 40 39 39 40 38 33 29 27 25 26 31 38 41 42 46 51 50 46 43 39 37 37 34 31 26 13 0 358 357 352 342 331 327 325 324 324 327
131 123 120 121 120 97 61 47 41 38 40 43 42 39 35 36 38 39 37 39 41 41 42 43 41 40 38 35 33 32 29 25 21 18 16 18 24 32 38 40 44 48 45 42 40 38 36 38 41 44 43 39 36 32 31 34 34 24 13 8 1 350 348